timestamp,surface_pressure_avg,surface_temp_avg,battery_voltage,lat,long
2018-02-22 00:00:00+00:00,254.1348,0.7,12.65,47.84626,-54.09684
2018-02-22 00:10:00+00:00,256.8147,0.7,12.65,47.84626,-54.09684
2018-02-22 00:20:00+00:00,251.0414,0.7,12.73,47.84626,-54.09684
2018-02-22 00:30:00+00:00,253.1598,0.7,12.73,47.84626,-54.09684
2018-02-22 00:40:00+00:00,262.5114,0.7,12.73,47.84626,-54.09684
2018-02-22 00:50:00+00:00,262.7681,0.7,12.73,47.84626,-54.09684
2018-02-22 01:00:00+00:00,265.8364,0.7,12.65,47.84626,-54.09684
2018-02-22 01:10:00+00:00,279.423,0.7,12.65,47.84626,-54.09684
2018-02-22 01:20:00+00:00,288.123,0.7,12.73,47.84626,-54.09684
2018-02-22 01:30:00+00:00,289.1863,0.7,12.73,47.84626,-54.09684
2018-02-22 01:40:00+00:00,294.2631,0.7,12.73,47.84626,-54.09684
2018-02-22 01:50:00+00:00,303.7964,0.7,12.73,47.84626,-54.09684
2018-02-22 02:00:00+00:00,304.1664,0.7,12.65,47.84626,-54.09684
2018-02-22 02:10:00+00:00,307.6464,0.7,12.65,47.84626,-54.09684
2018-02-22 02:20:00+00:00,316.4646,0.7,12.73,47.84626,-54.09684
2018-02-22 02:30:00+00:00,318.2563,0.69,12.73,47.84626,-54.09684
2018-02-22 02:40:00+00:00,315.048,0.67,12.73,47.84626,-54.09684
2018-02-22 02:50:00+00:00,313.7263,0.64,12.73,47.84626,-54.09684
2018-02-22 03:00:00+00:00,325.3929,0.65,12.65,47.84626,-54.09684
2018-02-22 03:10:00+00:00,327.078,0.64,12.65,47.84626,-54.09684
2018-02-22 03:20:00+00:00,330.5763,0.6,12.73,47.84626,-54.09684
2018-02-22 03:30:00+00:00,324.7996,0.6,12.73,47.84626,-54.09684
2018-02-22 03:40:00+00:00,320.7697,0.6,12.73,47.84626,-54.09684
2018-02-22 03:50:00+00:00,319.323,0.6,12.73,47.84626,-54.09684
2018-02-22 04:00:00+00:00,319.938,0.6,12.65,47.84626,-54.09684
2018-02-22 04:10:00+00:00,319.9913,0.6,12.65,47.84626,-54.09684
2018-02-22 04:20:00+00:00,320.4913,0.59,12.73,47.84626,-54.09684
2018-02-22 04:30:00+00:00,325.6629,0.59,12.73,47.84626,-54.09684
2018-02-22 04:40:00+00:00,325.6813,0.6,12.73,47.84626,-54.09684
2018-02-22 04:50:00+00:00,325.3246,0.6,12.73,47.84626,-54.09684
2018-02-22 05:00:00+00:00,322.7147,0.6,12.65,47.84626,-54.09684
2018-02-22 05:10:00+00:00,330.9129,0.6,12.65,47.84626,-54.09684
2018-02-22 05:20:00+00:00,331.2629,0.6,12.73,47.84626,-54.09684
2018-02-22 05:30:00+00:00,320.5596,0.6,12.73,47.84626,-54.09684
2018-02-22 05:40:00+00:00,316.3113,0.6,12.73,47.84626,-54.09684
2018-02-22 05:50:00+00:00,314.838,0.6,12.73,47.84626,-54.09684
2018-02-22 06:00:00+00:00,308.9114,0.6,12.65,47.84626,-54.09684
2018-02-22 06:10:00+00:00,300.4714,0.6,12.65,47.84626,-54.09684
2018-02-22 06:20:00+00:00,291.7947,0.6,12.73,47.84626,-54.09684
2018-02-22 06:30:00+00:00,282.0648,0.6,12.73,47.84626,-54.09684
2018-02-22 06:40:00+00:00,272.2264,0.6,12.73,47.84626,-54.09684
2018-02-22 06:50:00+00:00,255.0298,0.6,12.73,47.84626,-54.09684
2018-02-22 07:00:00+00:00,245.5247,0.6,12.65,47.84626,-54.09684
2018-02-22 07:10:00+00:00,245.2998,0.6,12.65,47.84626,-54.09684
2018-02-22 07:20:00+00:00,246.0964,0.6,12.73,47.84626,-54.09684
2018-02-22 07:30:00+00:00,227.2498,0.6,12.73,47.84626,-54.09684
2018-02-22 07:40:00+00:00,216.1448,0.6,12.73,47.84626,-54.09684
2018-02-22 07:50:00+00:00,218.0547,0.6,12.73,47.84626,-54.09684
2018-02-22 08:00:00+00:00,215.488,0.6,12.65,47.84626,-54.09684
2018-02-22 08:10:00+00:00,194.3598,0.6,12.65,47.84626,-54.09684
2018-02-22 08:20:00+00:00,189.0648,0.6,12.73,47.84626,-54.09684
2018-02-22 08:30:00+00:00,197.6448,0.6,12.73,47.84626,-54.09684
2018-02-22 08:40:00+00:00,185.9398,0.6,12.73,47.84626,-54.09684
2018-02-22 08:50:00+00:00,174.9265,0.59,12.73,47.84626,-54.09684
2018-02-22 09:00:00+00:00,174.9315,0.59,12.65,47.84626,-54.09684
2018-02-22 09:10:00+00:00,174.2415,0.6,12.65,47.84626,-54.09684
2018-02-22 09:20:00+00:00,177.1565,0.6,12.73,47.84626,-54.09684
2018-02-22 09:30:00+00:00,182.5365,0.6,12.73,47.84626,-54.09684
2018-02-22 09:40:00+00:00,185.2682,0.58,12.73,47.84626,-54.09684
2018-02-22 09:50:00+00:00,184.8915,0.5,12.73,47.84626,-54.09684
2018-02-22 10:00:00+00:00,186.0498,0.54,12.65,47.84626,-54.09684
2018-02-22 10:10:00+00:00,190.5015,0.58,12.65,47.84626,-54.09684
2018-02-22 10:20:00+00:00,189.6432,0.58,12.73,47.84626,-54.09684
2018-02-22 10:30:00+00:00,191.7181,0.54,12.73,47.84626,-54.09684
2018-02-22 10:40:00+00:00,203.1115,0.5,12.73,47.84626,-54.09684
2018-02-22 10:50:00+00:00,206.9914,0.5,12.73,47.84626,-54.09684
2018-02-22 11:00:00+00:00,209.8731,0.5,12.81,47.84626,-54.09684
2018-02-22 11:10:00+00:00,213.7331,0.5,12.65,47.84626,-54.09684
2018-02-22 11:20:00+00:00,208.7415,0.46,12.73,47.84626,-54.09684
2018-02-22 11:30:00+00:00,210.0081,0.48,12.73,47.84626,-54.09684
2018-02-22 11:40:00+00:00,217.6031,0.5,12.81,47.84626,-54.09684
2018-02-22 11:50:00+00:00,216.3314,0.4,12.81,47.84626,-54.09684
2018-02-22 12:00:00+00:00,210.4881,0.4,12.73,47.84626,-54.09684
2018-02-22 12:10:00+00:00,214.9031,0.4,12.73,47.84626,-54.09684
2018-02-22 12:20:00+00:00,223.5731,0.4,13.13,47.84626,-54.09684
2018-02-22 12:30:00+00:00,224.0131,0.47,13.84,47.84626,-54.09684
2018-02-22 12:40:00+00:00,229.2797,0.4,13.29,47.84626,-54.09684
2018-02-22 12:50:00+00:00,241.1781,0.4,13.76,47.84626,-54.09684
2018-02-22 13:00:00+00:00,248.3431,0.4,13.13,47.84626,-54.09684
2018-02-22 13:10:00+00:00,248.8498,0.4,13.05,47.84626,-54.09684
2018-02-22 13:20:00+00:00,248.2298,0.38,13.44,47.84626,-54.09684
2018-02-22 13:30:00+00:00,256.5064,0.4,13.29,47.84626,-54.09684
2018-02-22 13:40:00+00:00,269.6998,0.4,14.08,47.84626,-54.09684
2018-02-22 13:50:00+00:00,278.968,0.4,13.68,47.84626,-54.09684
2018-02-22 14:00:00+00:00,287.483,0.39,13.84,47.84626,-54.09684
2018-02-22 14:10:00+00:00,300.988,0.4,14.0,47.84626,-54.09684
2018-02-22 14:20:00+00:00,303.5646,0.4,13.44,47.84626,-54.09684
2018-02-22 14:30:00+00:00,307.5247,0.38,13.37,47.84626,-54.09684
2018-02-22 14:40:00+00:00,312.363,0.46,13.37,47.84626,-54.09684
2018-02-22 14:50:00+00:00,317.0897,0.48,13.68,47.84626,-54.09684
2018-02-22 15:00:00+00:00,314.5247,0.46,13.44,47.84626,-54.09684
2018-02-22 15:10:00+00:00,316.8363,0.48,13.68,47.84626,-54.09684
2018-02-22 15:20:00+00:00,324.5997,0.5,13.68,47.84626,-54.09684
2018-02-22 15:30:00+00:00,335.4829,0.5,13.44,47.84626,-54.09684
2018-02-22 15:40:00+00:00,337.403,0.49,13.68,47.84626,-54.09684
2018-02-22 15:50:00+00:00,338.2863,0.48,13.44,47.84626,-54.09684
2018-02-22 16:00:00+00:00,340.4097,0.45,13.53,47.84626,-54.09684
2018-02-22 16:10:00+00:00,342.4913,0.44,13.44,47.84626,-54.09684
2018-02-22 16:20:00+00:00,346.848,0.42,13.76,47.84626,-54.09684
2018-02-22 16:30:00+00:00,348.3045,0.43,13.44,47.84626,-54.09684
2018-02-22 16:40:00+00:00,350.3779,0.46,13.44,47.84626,-54.09684
2018-02-22 16:50:00+00:00,346.723,0.49,13.6,47.84626,-54.09684
2018-02-22 17:00:00+00:00,348.1613,0.5,13.92,47.84626,-54.09684
2018-02-22 17:10:00+00:00,355.3146,0.5,13.6,47.84626,-54.09684
2018-02-22 17:20:00+00:00,354.9146,0.59,13.44,47.84626,-54.09684
2018-02-22 17:30:00+00:00,353.1029,0.58,14.0,47.84626,-54.09684
2018-02-22 17:40:00+00:00,350.1163,0.58,14.16,47.84626,-54.09684
2018-02-22 17:50:00+00:00,349.0896,0.6,13.6,47.84626,-54.09684
2018-02-22 18:00:00+00:00,343.868,0.64,13.84,47.84626,-54.09684
2018-02-22 18:10:00+00:00,341.223,0.75,13.92,47.84626,-54.09684
2018-02-22 18:20:00+00:00,329.4713,0.79,14.0,47.84626,-54.09684
2018-02-22 18:30:00+00:00,318.7346,0.76,13.92,47.84626,-54.09684
2018-02-22 18:40:00+00:00,314.658,0.7,13.84,47.84626,-54.09684
2018-02-22 18:50:00+00:00,300.243,0.7,13.76,47.84626,-54.09684
2018-02-22 19:00:00+00:00,283.6981,0.7,13.6,47.84626,-54.09684
2018-02-22 19:10:00+00:00,280.7331,0.71,13.44,47.84626,-54.09684
2018-02-22 19:20:00+00:00,282.0364,0.7,13.44,47.84626,-54.09684
2018-02-22 19:30:00+00:00,270.5081,0.66,13.37,47.84626,-54.09684
2018-02-22 19:40:00+00:00,256.1114,0.6,13.29,47.84626,-54.09684
2018-02-22 19:50:00+00:00,252.8414,0.79,13.21,47.84626,-54.09684
2018-02-22 20:00:00+00:00,254.463,0.82,13.13,47.84626,-54.09684
2018-02-22 20:10:00+00:00,250.6997,0.8,13.05,47.84626,-54.09684
2018-02-22 20:20:00+00:00,253.3781,0.8,13.05,47.84626,-54.09684
2018-02-22 20:30:00+00:00,256.0464,0.8,13.05,47.84626,-54.09684
2018-02-22 20:40:00+00:00,253.2631,0.8,13.05,47.84626,-54.09684
2018-02-22 20:50:00+00:00,241.713,0.7,13.05,47.84626,-54.09684
2018-02-22 21:00:00+00:00,247.8331,0.61,12.97,47.84626,-54.09684
2018-02-22 21:10:00+00:00,255.738,0.7,12.89,47.84626,-54.09684
2018-02-22 21:20:00+00:00,244.8348,0.7,12.97,47.84626,-54.09684
2018-02-22 21:30:00+00:00,233.9098,0.7,12.97,47.84626,-54.09684
2018-02-22 21:40:00+00:00,243.9381,0.73,12.97,47.84626,-54.09684
2018-02-22 21:50:00+00:00,250.0648,0.8,12.97,47.84626,-54.09684
2018-02-22 22:00:00+00:00,236.4348,0.8,12.89,47.84626,-54.09684
2018-02-22 22:10:00+00:00,231.5114,0.8,12.89,47.84626,-54.09684
2018-02-22 22:20:00+00:00,244.0414,0.8,12.97,47.84626,-54.09684
2018-02-22 22:30:00+00:00,243.1381,0.8,12.97,47.84626,-54.09684
2018-02-22 22:40:00+00:00,235.4931,0.79,12.97,47.84626,-54.09684
2018-02-22 22:50:00+00:00,243.7048,0.78,12.97,47.84626,-54.09684
2018-02-22 23:00:00+00:00,256.4598,0.79,12.89,47.84626,-54.09684
2018-02-22 23:10:00+00:00,258.5397,0.79,12.81,47.84626,-54.09684
2018-02-22 23:20:00+00:00,251.4281,0.8,12.89,47.84626,-54.09684
2018-02-22 23:30:00+00:00,259.2714,0.8,12.89,47.84626,-54.09684
2018-02-22 23:40:00+00:00,273.0014,0.82,12.89,47.84626,-54.09684
2018-02-22 23:50:00+00:00,272.2231,0.81,12.89,47.84626,-54.09684
